Total_Precipitation_Accumulation
0.69 0.68 0.69 0.65 0.63 0.66 0.73 0.90 1.12 0.94 0.48 0.32 0.37 0.39 0.41 0.46 0.54 0.56 0.56 0.68 0.77 0.81 0.84 0.91 1.01 1.13 1.29 1.60 2.17 2.93 3.54 3.93 3.89 3.61 3.39 3.38 3.68 4.08
0.82 0.80 0.77 0.76 0.76 0.76 0.79 0.84 1.01 1.20 0.89 0.40 0.39 0.45 0.51 0.53 0.60 0.59 0.58 0.68 0.74 0.85 0.93 0.94 1.02 1.12 1.23 1.39 1.64 2.17 2.86 3.40 3.77 3.93 3.88 3.82 3.90 4.16
0.87 0.89 0.88 0.88 0.92 0.92 0.93 0.94 0.99 1.18 1.18 0.57 0.38 0.44 0.57 0.62 0.63 0.60 0.60 0.63 0.65 0.75 0.88 0.95 1.02 1.11 1.19 1.30 1.46 1.73 2.26 2.81 3.29 3.79 4.13 4.17 4.10 4.11
0.90 0.95 0.96 0.97 1.00 1.01 1.06 1.06 1.04 1.08 1.19 0.87 0.51 0.49 0.57 0.63 0.68 0.69 0.63 0.63 0.64 0.70 0.82 0.94 1.01 1.08 1.15 1.23 1.35 1.53 1.83 2.34 2.76 3.12 3.61 3.88 3.95 4.12
0.85 0.92 0.96 1.04 1.08 1.06 1.08 1.08 1.04 0.98 1.03 1.02 0.71 0.56 0.60 0.66 0.73 0.77 0.76 0.76 0.72 0.75 0.78 0.88 0.98 1.04 1.12 1.19 1.27 1.36 1.49 1.74 2.18 2.71 3.23 3.64 3.71 3.72
0.82 0.87 0.94 1.06 1.15 1.23 1.30 1.21 1.14 1.19 1.20 1.19 0.98 0.77 0.71 0.72 0.88 0.93 0.91 0.85 0.81 0.74 0.76 0.79 0.90 1.01 1.04 1.07 1.10 1.17 1.29 1.54 1.93 2.43 2.84 3.29 3.55 3.50
0.84 0.84 0.88 1.06 1.28 1.49 1.62 1.56 1.54 1.60 1.55 1.52 1.33 1.08 0.92 0.92 1.00 0.99 1.04 0.93 0.90 0.86 0.82 0.74 0.74 0.76 0.82 0.94 1.02 1.07 1.17 1.32 1.56 1.92 2.39 2.79 3.19 3.46
0.92 0.85 0.82 0.91 1.03 1.23 1.46 1.55 1.65 1.79 1.86 1.82 1.67 1.43 1.11 0.99 1.05 1.22 1.35 1.36 1.20 0.88 0.86 0.84 0.82 0.88 0.84 0.83 0.97 1.04 1.08 1.20 1.40 1.65 1.96 2.29 2.64 3.07
0.82 0.77 0.76 0.76 0.83 0.80 0.95 1.06 1.16 1.36 1.62 1.80 1.88 1.53 1.25 1.13 1.33 1.56 1.60 1.58 1.32 1.07 1.15 1.23 1.02 1.00 0.92 0.98 1.14 1.07 1.11 1.22 1.35 1.50 1.72 2.01 2.26 2.58
0.73 0.74 0.76 0.74 0.74 0.83 0.92 0.95 0.89 0.92 1.16 1.42 1.57 1.43 1.33 1.35 1.58 1.89 2.04 2.09 1.73 1.37 1.37 1.59 1.23 1.07 0.98 1.00 1.18 1.14 1.12 1.20 1.30 1.43 1.56 1.71 1.92 2.23
0.72 0.85 0.90 0.81 0.87 1.08 1.20 1.16 0.96 0.83 0.91 1.24 1.53 1.57 1.62 1.83 2.07 2.45 2.74 2.83 2.50 1.81 1.55 1.70 1.46 1.23 1.12 1.06 1.14 1.23 1.21 1.20 1.25 1.36 1.51 1.63 1.76 1.99
0.74 0.87 1.15 1.12 1.12 1.21 1.27 1.30 1.24 0.94 0.85 0.91 1.02 1.15 1.19 1.28 1.66 2.03 2.33 2.64 2.59 2.28 1.73 1.70 1.68 1.62 1.67 1.27 1.07 1.03 1.09 1.23 1.29 1.32 1.44 1.59 1.76 1.78
0.88 0.93 1.07 1.18 1.19 1.22 1.29 1.27 1.31 1.26 1.20 1.18 1.12 1.06 1.08 1.21 1.37 1.64 1.91 2.23 2.49 2.32 1.81 1.93 2.07 1.92 1.90 1.56 1.19 1.07 0.98 0.97 1.03 1.18 1.36 1.56 1.72 1.82
0.99 0.90 0.98 1.14 1.20 1.23 1.19 1.20 1.30 1.35 1.28 1.25 1.19 1.10 1.06 1.12 1.19 1.34 1.60 1.78 1.95 2.02 1.82 2.00 2.34 2.15 2.07 1.75 1.35 1.21 1.12 1.04 0.99 1.04 1.15 1.49 1.68 1.81
1.05 1.20 1.18 1.15 1.10 1.04 1.04 1.11 1.13 1.09 1.14 1.14 1.03 0.92 0.87 0.92 1.03 1.20 1.39 1.57 1.71 1.78 1.83 1.85 2.00 2.06 2.21 2.07 1.54 1.27 1.28 1.26 1.15 1.12 1.18 1.29 1.42 1.58
1.06 1.15 1.16 1.05 0.94 0.90 0.93 0.94 0.93 1.00 1.11 1.12 0.99 0.88 0.83 0.90 1.02 1.13 1.31 1.46 1.70 1.75 1.69 1.73 1.86 2.15 2.36 2.02 1.76 1.51 1.31 1.43 1.37 1.28 1.27 1.30 1.34 1.39
1.28 1.26 1.14 1.00 0.92 0.84 0.80 0.77 0.79 0.91 1.03 1.02 1.03 1.02 0.98 1.00 1.04 1.07 1.25 1.42 1.61 1.59 1.58 1.68 1.84 2.05 2.27 2.27 2.17 1.75 1.46 1.40 1.43 1.45 1.42 1.44 1.43 1.42
1.30 1.22 1.02 0.91 0.86 0.82 0.81 0.81 0.79 0.82 0.87 0.94 1.01 1.04 1.06 1.08 1.08 1.08 1.24 1.41 1.48 1.43 1.47 1.58 1.87 2.27 2.55 2.58 2.26 1.92 1.64 1.53 1.58 1.64 1.55 1.50 1.47 1.38
1.07 0.96 0.87 0.85 0.82 0.80 0.81 0.82 0.79 0.75 0.81 0.92 1.00 1.04 1.08 1.12 1.13 1.14 1.19 1.29 1.34 1.35 1.41 1.53 1.83 2.31 2.53 2.36 2.21 1.95 1.77 1.64 1.68 1.85 1.76 1.51 1.40 1.31
0.85 0.86 0.84 0.81 0.80 0.80 0.81 0.82 0.80 0.78 0.82 0.89 0.94 0.97 1.03 1.12 1.13 1.08 1.09 1.21 1.30 1.35 1.42 1.52 1.76 2.08 2.35 2.10 1.99 2.02 1.92 1.84 1.84 1.97 1.87 1.60 1.47 1.51
0.77 0.78 0.78 0.81 0.83 0.82 0.80 0.80 0.82 0.84 0.82 0.84 0.87 0.88 0.93 1.04 1.07 0.99 1.02 1.12 1.31 1.43 1.44 1.43 1.57 1.83 2.11 2.23 2.21 2.06 2.02 2.01 1.93 1.99 1.93 1.85 1.76 1.69
0.75 0.79 0.76 0.77 0.82 0.84 0.83 0.81 0.83 0.82 0.79 0.80 0.81 0.82 0.87 0.98 1.02 0.97 1.03 1.13 1.22 1.28 1.32 1.35 1.47 1.83 2.27 2.43 2.22 1.98 1.99 2.07 2.16 2.09 2.01 1.94 2.03 2.00
0.85 0.83 0.77 0.72 0.74 0.79 0.83 0.83 0.82 0.77 0.74 0.80 0.83 0.84 0.87 0.95 0.95 0.99 1.03 1.09 1.18 1.23 1.28 1.42 1.58 1.84 2.10 2.10 2.08 1.99 1.88 1.89 1.98 2.10 2.31 2.06 1.66 1.49